Richmond International Airport Airport (RIC)

 

Airport Diagram
Current Weather/Forecast (VFR Conditions)
METAR KRIC 241954Z 28012G17KT 10SM FEW065 SCT150 BKN300 28/12 A2982 RMK AO2 SLP102 T02830122
TAF KRIC 241800Z 2418/2518 31011G18KT P6SM SCT060 BKN200 FM242100 30010KT P6SM SCT060 BKN150 FM242300 04004KT P6SM BKN060 FM251400 13005KT P6SM BKN100

All Charts
General
Chart Name Download
AIRPORT DIAGRAM
TAKEOFF MINIMUMS
ALTERNATE MINIMUMS
HOT SPOT

Departures
Chart Name Download
COLIN EIGHT
KALLI FIVE (RNAV)
KALLI FIVE (RNAV), CONT.1
LUCYL FIVE (RNAV)
LUCYL FIVE (RNAV), CONT.1
READE SIX
READE SIX, CONT.1

Arrivals
Chart Name Download
DUCXS FOUR (RNAV)
POWTN FOUR (RNAV)
SPIDR THREE (RNAV)

Approaches
Chart Name Download
ILS OR LOC RWY 02
ILS OR LOC RWY 16
ILS OR LOC RWY 34
ILS RWY 34 (SA CAT I)
ILS RWY 34 (CAT II - III)
RNAV (RNP) Y RWY 02
RNAV (RNP) Y RWY 16
RNAV (RNP) Y RWY 20
RNAV (RNP) Y RWY 34
RNAV (GPS) RWY 07
RNAV (GPS) RWY 25
RNAV (GPS) Z RWY 02
RNAV (GPS) Z RWY 16
RNAV (GPS) Z RWY 20
RNAV (GPS) Z RWY 34
VOR RWY 02
VOR RWY 16
VOR RWY 20
VOR RWY 25
VOR RWY 34


Inbound Traffic (Arrivals)
Callsign Aircraft Rules Departure Route
SKW3253 H/E170/E IFR KORD +MOBLE BEARZ V340 FWA J178 APE V144 ZZV V38 GVE V3 FAK DCT SPIDR

Outbound Traffic (Departures)

No outbound traffic.